Location: Ford County Road and Bridge Department
(37.7686°N, 99.9762°W)
Time: 17:42:03
(UTC+00:00)

SMAP - Pass Details

Date: 18 January 2020
Orbit: 681 x 683 km, 98.1° (Epoch: 23 February)

Event Time Altitude Azimuth Distance (km) Brightness Sun altitude
Rises 00:08:10 0° 166° (SSE) 3,030 6.5 -4.7°
Reaches altitude 10° 00:10:23 10° 167° (SSE) 2,118 5.7 -5.1°
Maximum altitude 00:15:02 88° 251° (WSW) 688 3.1 -6.0°
Drops below altitude 10° 00:19:43 10° 347° (NNW) 2,132 5.5 -6.8°
Sets 00:21:57 0° 348° (NNW) 3,052 6.3 -7.2°
